RH
33 34 37 41 44 43 38 34 30 27 25 23 22 20 17 15 14 13 12 11 10 8 7 6 6 6 5 5 5 5 5 4 4 4 4 3 4 3 3 4 3 3 3 3 2 2 3 4 14 44 79 97 97 88 83 83 84 86 88 90 96 100 91 71 53 46 45 45 42 36 32 30 33 36
36 37 41 46 48 46 42 38 33 30 27 24 22 20 17 15 14 13 12 10 9 8 7 6 6 6 5 5 5 5 4 4 4 3 4 3 3 4 3 3 3 3 2 3 3 2 2 3 3 10 34 70 95 100 94 88 84 85 87 87 90 96 100 92 73 56 47 44 43 43 40 35 32 33
35 37 42 48 49 48 45 41 36 31 28 25 22 20 17 16 14 12 11 9 8 7 7 6 6 6 6 5 5 4 3 3 3 2 3 3 2 3 3 2 2 3 3 2 2 3 2 1 3 3 7 26 59 88 100 98 92 89 87 86 83 83 95 101 90 80 74 65 55 49 44 41 38 35
33 37 42 48 51 51 47 41 35 30 27 25 22 20 17 15 13 11 10 8 7 7 6 6 6 6 5 4 4 4 3 3 3 3 3 3 3 2 2 3 2 2 2 3 2 2 3 2 1 3 3 5 19 47 77 95 101 98 92 91 85 81 91 100 96 95 96 93 85 72 55 46 45 44
37 41 46 52 54 51 45 38 32 29 27 25 22 20 17 14 11 9 8 7 7 7 6 6 6 5 5 5 4 4 4 3 3 3 3 3 3 3 2 2 2 2 2 2 2 1 2 3 2 1 2 3 4 15 37 64 86 98 100 98 93 90 94 99 100 100 95 94 98 93 80 66 56 53
41 47 53 56 54 47 40 34 31 29 27 24 21 18 14 11 8 7 7 7 7 7 7 6 6 6 5 5 5 4 4 4 3 3 3 3 2 2 3 2 2 3 2 1 2 2 2 1 2 2 1 2 2 4 12 28 49 73 93 101 100 96 94 94 97 96 90 90 93 92 93 90 80 75
45 51 56 55 50 42 37 33 32 29 27 24 20 16 11 8 7 7 7 7 7 7 7 7 6 6 5 4 4 4 4 3 3 3 2 2 3 2 2 3 2 2 3 2 2 2 2 2 1 2 2 1 2 2 4 10 21 38 63 86 98 99 96 94 95 93 89 92 95 95 97 98 97 96
46 52 56 54 47 40 36 34 32 30 27 23 18 13 9 8 7 7 7 7 7 7 7 6 6 6 5 5 4 4 3 3 2 2 2 2 2 2 2 2 3 2 2 2 3 2 2 2 2 2 2 2 2 1 1 4 9 18 34 55 74 92 101 99 98 99 94 91 95 100 99 99 101 101
46 54 56 51 44 40 37 36 34 30 26 21 16 12 9 7 7 7 7 7 7 7 7 7 7 6 5 4 4 3 2 2 2 2 3 2 2 2 3 2 2 3 3 2 2 3 2 2 2 2 2 2 1 2 2 1 3 9 18 31 45 66 91 101 100 101 98 93 94 98 98 99 102 100
49 56 56 50 44 41 38 37 35 30 24 19 15 11 8 7 7 7 7 7 7 7 7 7 7 6 5 4 3 3 2 2 3 3 2 3 3 3 3 4 3 3 3 3 3 3 3 2 2 2 2 2 2 1 2 2 2 3 9 19 26 38 64 90 100 100 98 96 95 95 96 100 101 99
54 60 56 49 45 42 40 39 36 29 24 18 14 10 7 6 7 6 6 6 7 7 8 8 7 5 4 3 2 2 3 3 3 4 4 3 4 4 4 4 4 4 4 4 3 3 3 2 2 2 2 2 2 2 2 1 2 2 3 9 17 21 36 64 88 99 101 98 96 97 99 100 101 100
59 62 56 49 45 44 42 40 35 29 24 18 13 9 7 6 6 6 6 6 7 8 8 8 7 4 3 3 3 3 4 4 4 4 4 4 4 4 5 4 4 5 4 4 4 3 3 3 2 2 2 2 2 2 2 2 1 2 2 4 8 12 19 36 60 84 100 101 98 100 101 99 100 101
63 62 55 49 47 46 44 40 34 29 24 19 13 9 7 6 6 6 6 6 7 8 9 8 5 4 3 3 4 4 5 5 5 5 5 5 6 5 5 6 5 5 5 5 5 4 3 3 3 2 2 2 2 2 2 2 2 2 2 3 4 6 10 19 33 56 84 100 101 99 99 100 100 100
66 62 54 51 50 49 45 39 33 29 24 19 13 9 7 6 6 6 6 6 7 8 9 7 4 3 4 4 4 5 5 5 6 6 6 6 7 7 7 7 7 7 6 6 5 5 4 4 3 3 3 2 2 2 2 2 2 2 2 2 3 3 4 10 18 30 53 81 98 101 98 99 100 100
68 61 56 54 54 51 45 38 33 29 24 19 14 10 8 6 6 6 6 7 8 9 8 6 4 4 4 4 5 5 6 6 6 6 7 7 8 8 8 8 8 7 7 6 5 5 4 4 4 3 3 3 2 2 2 2 2 2 2 2 3 3 2 4 10 16 26 47 75 95 100 99 99 100
69 63 59 57 56 51 43 37 33 29 23 19 15 11 7 6 6 5 6 7 8 9 8 6 4 4 4 5 6 6 6 6 7 7 7 8 8 8 8 8 7 6 6 6 5 5 4 4 4 4 3 3 3 3 2 2 2 2 2 2 2 3 3 2 4 9 14 23 42 68 88 97 100 99
71 65 62 60 56 49 41 37 34 30 24 19 15 10 7 6 6 6 7 7 8 9 8 5 4 4 5 5 5 6 7 7 8 8 9 9 9 8 8 7 7 6 6 5 5 5 5 4 4 4 4 3 3 3 3 3 3 2 2 2 2 2 2 3 3 4 7 12 20 36 58 79 95 100
72 68 65 61 55 47 41 38 35 30 25 19 14 9 7 6 6 6 7 7 9 9 6 5 5 4 5 5 6 7 8 9 9 9 9 9 8 8 8 7 7 6 6 6 5 5 5 5 4 4 4 4 4 4 3 3 3 3 2 2 2 2 2 2 3 3 4 6 9 18 32 51 73 93
73 69 67 62 54 46 42 40 35 31 25 19 12 8 6 6 6 6 7 8 9 8 6 5 5 5 5 6 7 8 8 9 9 9 8 8 8 8 8 7 7 7 6 6 6 6 6 5 5 5 4 4 4 4 4 4 3 3 3 2 2 2 2 2 2 3 3 3 5 9 18 29 43 68
74 72 69 62 52 46 44 40 36 31 24 17 11 8 6 6 6 7 8 8 8 8 6 5 5 5 6 7 8 9 9 9 9 9 9 9 9 9 9 8 8 7 7 6 6 6 6 5 5 5 5 4 4 4 4 4 4 3 3 3 3 2 2 2 2 2 2 3 4 5 11 19 25 38
76 75 71 61 51 46 45 41 35 30 23 15 10 8 7 6 7 8 8 8 9 8 6 5 5 5 6 7 8 9 9 10 10 10 11 11 11 10 9 9 8 7 7 7 7 6 6 6 5 5 4 4 4 4 4 4 4 4 3 3 3 3 2 2 2 2 2 2 3 4 6 12 19 22
79 78 71 59 50 48 45 40 35 28 20 13 9 8 8 7 7 8 8 8 8 7 6 5 6 6 6 7 8 9 9 10 10 11 11 11 11 11 10 8 7 7 7 6 6 6 5 5 4 4 4 4 3 3 4 3 3 3 3 3 3 3 3 3 2 2 2 2 2 3 4 7 14 18
81 79 69 57 51 49 45 40 34 26 17 12 10 8 8 8 8 8 8 8 8 7 6 5 5 6 7 7 8 9 10 10 10 11 12 11 11 11 10 8 7 6 6 5 4 4 4 3 4 4 4 4 4 3 3 3 3 3 3 3 3 3 3 3 3 2 2 3 2 2 3 4 7 14
82 78 67 56 52 50 45 39 33 24 16 12 10 9 9 9 9 8 8 8 8 7 6 6 5 6 7 7 8 9 10 11 11 11 12 12 12 11 10 8 6 5 5 4 4 4 4 4 4 5 5 5 4 4 3 3 3 3 3 2 2 3 3 2 3 3 2 2 2 2 2 3 4 8
84 77 64 56 54 51 45 40 32 23 16 12 10 10 10 10 10 9 8 8 8 7 6 6 6 6 6 8 9 10 10 11 11 12 13 12 12 13 10 7 6 5 5 4 5 5 5 6 6 6 6 6 6 5 5 5 4 3 3 3 2 2 2 2 2 3 2 2 3 2 2 2 4 5
85 74 61 56 56 51 45 40 31 22 16 13 11 10 11 11 10 9 8 8 7 7 7 6 6 6 6 8 10 10 11 11 12 13 13 13 13 13 11 7 6 6 5 5 5 6 6 7 7 7 8 7 7 7 7 6 5 4 4 3 3 2 2 2 2 2 2 2 2 2 2 2 2 4
84 70 59 58 56 50 45 39 29 21 16 13 12 11 12 12 11 9 8 8 8 7 7 6 6 6 6 9 11 12 11 12 13 13 13 13 14 14 12 8 6 6 6 6 6 7 7 8 8 9 9 9 9 9 8 7 7 6 6 5 4 3 2 2 2 2 2 2 2 2 2 2 1 2
80 65 59 60 56 50 45 38 28 21 16 14 12 12 12 13 12 10 8 8 8 8 7 7 7 7 7 9 12 13 13 13 13 13 13 14 15 15 13 10 7 6 6 7 8 8 9 10 11 12 12 12 12 11 10 9 9 9 9 7 6 5 4 3 3 2 2 2 2 2 2 2 2 2
75 61 58 60 56 50 45 38 28 21 17 14 13 13 13 14 12 10 9 8 8 8 8 8 7 7 8 10 13 14 15 15 14 13 14 15 16 16 15 12 9 7 7 9 9 10 10 11 13 13 13 13 12 11 10 11 11 11 11 10 8 7 6 4 3 3 3 2 2 2 2 1 2 2
69 61 60 59 56 50 44 37 28 22 17 15 13 13 14 14 13 11 9 8 9 9 8 8 8 8 9 11 14 16 16 16 17 16 16 17 17 17 17 15 12 10 10 10 11 11 12 13 13 14 14 12 12 11 11 11 12 14 13 12 11 9 8 7 5 3 3 3 2 2 3 2 2 2
65 60 60 59 55 50 44 37 29 23 18 16 14 14 14 15 15 12 9 9 9 9 9 9 9 9 10 12 15 17 17 18 19 19 20 20 19 19 19 18 16 14 13 13 12 12 13 13 14 14 13 12 12 11 11 12 15 16 15 13 12 11 10 10 8 5 4 3 3 3 2 3 4 3
65 60 61 60 56 51 46 39 30 24 20 17 15 14 15 15 15 13 11 9 9 10 10 10 10 10 10 12 14 17 19 20 21 21 22 23 23 22 21 20 19 18 16 15 15 15 14 14 14 14 13 13 13 12 13 15 18 18 18 16 15 14 13 12 11 9 6 4 4 4 2 4 8 9
65 60 61 61 57 54 49 41 31 24 21 19 17 15 15 16 16 15 12 10 10 10 10 11 11 11 10 11 13 16 18 20 21 22 23 24 25 25 24 24 23 22 21 20 18 18 17 16 16 16 15 15 16 16 16 18 19 19 19 19 18 17 16 14 13 11 10 8 6 5 3 4 10 19
65 61 62 61 58 56 52 43 33 26 22 20 18 17 16 16 16 16 13 11 10 11 11 12 12 12 11 12 12 14 16 19 20 21 23 23 24 25 25 25 25 24 24 24 23 22 22 21 20 20 19 19 19 19 19 19 19 19 19 19 21 21 19 18 16 14 13 12 10 8 6 4 5 18
67 63 63 61 59 59 55 46 36 28 25 22 20 18 16 15 16 16 14 12 11 11 12 13 12 13 13 12 12 13 14 16 18 19 20 21 22 23 23 24 24 24 24 24 24 25 24 24 23 23 22 22 21 21 21 20 20 19 19 19 20 20 21 21 20 18 16 16 14 11 9 8 4 6
69 64 63 62 61 61 58 50 39 30 27 24 21 20 17 15 15 15 14 13 12 11 12 13 13 14 14 13 13 13 13 14 15 16 17 18 18 19 20 20 21 22 22 22 23 23 23 23 23 22 22 22 22 22 22 22 21 20 19 19 18 18 20 21 21 22 22 21 19 16 12 11 10 5
70 64 64 63 63 64 62 55 43 34 30 27 23 22 18 15 14 14 14 14 13 12 13 13 14 14 14 14 14 14 13 13 14 13 14 14 14 14 15 16 16 17 18 19 19 20 20 21 20 20 21 21 21 22 22 22 23 23 22 22 21 20 19 19 20 22 24 23 22 21 18 13 13 13
69 64 64 65 66 67 66 59 48 38 33 29 26 23 19 15 13 12 13 13 13 13 13 14 14 15 15 15 14 14 14 14 14 14 14 14 13 13 13 12 13 13 13 14 15 15 16 17 17 18 18 18 18 19 20 20 20 22 23 23 23 23 22 21 20 20 21 22 22 22 23 21 17 15
66 64 65 66 68 70 69 64 55 44 36 32 28 25 21 16 12 11 12 12 12 13 14 14 15 15 15 15 15 15 15 15 15 15 15 14 14 14 14 14 14 13 13 13 12 12 12 13 13 14 15 15 15 16 16 17 16 17 19 20 21 23 23 23 24 22 20 20 21 21 22 24 23 20
65 67 67 68 71 74 73 70 62 51 42 37 32 29 24 18 13 11 11 11 12 14 14 15 16 16 16 16 16 15 15 16 15 16 16 16 16 16 16 16 16 16 16 16 15 14 14 13 12 12 12 12 12 13 13 14 14 14 14 15 15 17 19 20 22 24 24 21 21 21 20 20 22 24
69 69 68 71 75 77 77 75 69 59 50 43 37 33 27 20 15 12 11 10 11 13 15 16 16 17 17 17 17 17 16 16 16 16 16 17 17 17 17 17 17 17 18 18 17 18 17 17 16 15 14 12 11 11 10 11 11 12 12 12 11 12 13 14 15 18 21 23 23 22 22 21 20 21
72 71 73 76 79 80 81 80 77 70 59 49 42 37 30 22 17 13 12 11 11 13 15 16 17 18 18 18 18 18 17 17 17 17 17 18 18 18 18 18 18 18 18 18 18 18 18 19 19 19 18 17 15 13 11 10 10 10 10 10 11 10 10 11 11 11 13 17 20 22 23 23 21 20
77 78 79 80 82 85 85 84 83 78 68 57 49 42 34 27 21 16 13 11 11 12 15 17 18 19 19 19 19 19 19 18 18 18 18 19 19 19 19 19 19 19 18 18 18 18 18 19 19 19 20 21 20 18 15 12 10 10 10 9 9 10 9 9 10 10 10 10 12 15 19 22 23 23
85 86 87 88 88 89 89 88 88 85 76 65 56 47 39 32 26 20 15 12 12 13 15 17 19 20 21 21 21 21 21 20 20 20 20 20 20 20 21 21 21 21 20 19 19 19 18 19 19 20 20 21 21 21 20 17 13 11 11 10 9 9 9 9 9 9 9 9 9 10 12 15 19 22
92 93 94 94 93 93 93 92 91 89 84 74 63 53 45 37 30 24 19 16 15 16 17 18 20 22 23 23 23 23 23 23 23 22 22 22 22 21 22 22 22 23 23 22 21 21 20 19 20 21 21 21 21 21 21 20 17 13 12 12 11 10 10 10 10 9 9 9 9 9 9 10 12 15
Wind_Speed
24 25 26 28 29 29 29 29 29 30 30 31 32 32 32 31 31 31 32 32 32 32 32 33 33 33 33 33 33 34 34 34 34 34 34 33 33 32 32 31 30 29 28 27 26 25 24 24 23 23 24 26 28 29 30 31 32 32 32 31 32 34 35 36 36 36 36 37 38 39 39 38 38 38
26 27 27 28 29 30 30 30 30 30 31 31 32 32 32 31 31 31 31 32 32 32 32 33 33 33 34 35 35 35 35 35 35 34 34 34 34 33 33 33 33 32 31 30 29 28 27 26 25 25 24 24 27 29 29 30 33 34 35 34 33 34 36 37 36 35 36 38 39 40 40 41 40 40
27 27 28 29 29 30 30 30 30 30 31 32 32 32 31 31 31 31 31 32 32 33 33 33 34 35 36 37 37 37 36 36 36 35 35 35 35 34 33 33 33 33 33 32 31 30 29 28 27 27 26 25 26 27 29 30 32 35 37 35 34 34 35 36 36 36 37 39 41 42 42 42 42 42
27 27 28 29 29 29 29 29 29 30 31 31 32 31 31 30 31 31 32 32 32 33 34 35 36 37 38 38 38 38 38 38 39 39 39 38 38 37 36 35 34 34 34 34 33 33 32 31 30 29 28 28 28 28 29 31 31 33 36 37 37 35 33 36 39 39 38 36 38 43 44 43 43 43
27 27 28 28 28 29 29 29 29 30 31 31 31 31 30 30 31 31 32 32 33 34 36 37 39 39 40 40 41 41 42 42 43 43 43 42 42 40 39 38 37 35 34 34 34 34 33 33 32 31 30 30 30 30 30 32 31 31 33 37 39 38 37 40 43 42 40 37 36 39 43 45 45 44
28 28 27 27 27 28 28 28 29 30 31 31 31 30 29 29 30 31 32 33 34 36 38 39 40 41 42 43 44 45 46 47 47 47 47 45 44 42 40 39 38 37 36 35 35 34 34 34 34 33 33 31 31 32 32 33 34 32 31 35 40 41 41 43 44 45 45 44 42 40 39 42 45 46
28 27 27 26 26 27 28 28 29 30 31 30 30 29 28 29 30 31 32 33 35 37 39 41 43 44 44 45 46 48 50 52 52 51 50 47 44 42 40 38 36 36 35 35 35 35 35 35 34 34 34 33 32 32 33 34 35 35 33 33 37 41 43 44 45 47 48 45 43 43 40 38 37 40
28 27 26 26 26 27 28 29 30 30 30 29 29 28 28 29 30 32 33 35 37 40 42 44 45 46 47 48 50 52 53 54 53 51 49 45 42 39 37 34 33 32 32 32 33 33 34 35 35 34 34 35 34 33 33 34 35 36 35 35 35 37 41 45 46 47 49 46 44 44 43 39 35 35
27 26 26 26 26 27 28 29 30 30 29 29 28 28 29 30 31 33 34 37 39 42 44 46 47 48 50 51 53 53 53 51 48 45 43 41 39 37 35 34 31 30 29 29 30 31 32 33 34 34 34 34 35 34 33 34 35 36 37 37 37 37 38 43 47 49 50 49 48 47 45 43 40 38
26 26 26 26 27 28 29 30 30 29 29 29 29 29 29 30 32 34 36 38 41 43 46 48 49 50 51 53 53 51 48 44 41 39 37 37 37 36 35 33 32 30 29 28 27 28 29 30 31 33 33 33 34 34 34 33 34 35 37 39 40 40 39 39 43 49 53 53 51 50 49 46 44 41
26 25 25 26 27 28 29 30 29 29 29 29 29 29 29 31 32 34 37 39 41 44 47 49 50 52 53 53 50 47 44 40 38 36 34 33 33 33 31 31 30 30 28 27 26 26 26 28 29 30 31 32 33 33 33 34 33 34 35 38 40 41 41 39 38 43 52 56 55 54 52 50 47 44
25 25 25 26 27 28 29 29 29 29 29 29 29 29 30 31 33 35 37 40 42 45 48 50 51 52 52 49 46 42 39 36 34 33 31 30 30 29 29 29 28 28 27 27 26 25 25 25 26 27 28 29 31 31 32 32 33 33 34 36 38 40 41 42 39 39 45 53 56 56 53 50 48 46
25 25 25 26 27 28 29 29 29 29 29 29 30 30 31 32 34 36 38 40 43 46 48 50 51 51 49 45 41 37 34 32 31 30 30 29 29 28 28 28 28 27 27 27 27 27 26 25 24 24 25 27 28 30 31 31 31 32 33 34 37 38 39 41 42 41 41 46 50 51 51 50 49 48
25 24 25 26 27 28 29 29 29 29 29 30 30 31 32 33 34 36 38 40 43 46 49 50 51 49 46 42 39 35 33 31 30 28 28 27 27 27 28 28 28 28 27 27 26 26 26 26 26 25 25 24 25 27 28 30 30 31 31 33 35 36 37 38 41 42 42 42 44 45 47 49 50 49
24 24 24 26 28 28 28 28 28 29 29 30 30 31 32 33 34 36 38 40 43 46 48 49 49 47 44 40 37 35 33 30 28 27 26 26 26 26 26 26 26 25 24 23 23 22 22 23 24 25 25 25 24 25 25 27 28 29 30 31 33 35 35 36 38 41 42 42 43 42 42 45 49 51
24 24 25 26 27 28 28 27 28 29 30 30 31 32 33 33 34 35 38 40 43 46 48 48 46 44 41 38 36 34 32 30 28 27 26 26 25 25 24 23 23 23 22 21 21 20 20 20 20 21 22 23 24 25 25 25 26 27 28 30 31 33 34 34 35 37 40 42 43 42 40 40 43 49
23 24 25 26 27 27 27 27 28 29 30 30 31 32 32 33 34 35 37 40 43 45 46 45 44 42 39 37 35 33 31 30 28 27 26 25 24 23 23 23 22 23 23 23 22 22 21 20 20 20 20 21 22 23 24 25 26 26 27 28 29 31 33 33 33 34 36 39 41 43 42 39 38 42
23 24 25 25 26 26 27 27 29 29 30 30 31 32 32 33 34 35 37 40 42 44 45 43 41 40 38 36 34 33 31 29 28 27 26 25 24 25 26 26 27 27 27 26 24 23 22 21 20 20 20 20 20 21 22 23 25 26 27 28 28 30 31 32 32 33 34 35 38 40 42 42 39 38
23 23 24 25 25 26 26 28 29 30 30 30 31 31 32 32 34 35 37 39 41 43 43 41 39 38 37 36 34 32 31 30 29 28 27 27 28 30 31 31 31 30 29 27 26 25 24 23 22 21 21 20 20 20 20 21 22 24 26 27 28 29 30 31 32 32 32 33 35 37 39 42 42 39
23 23 24 24 25 25 26 28 29 30 30 30 30 31 31 32 34 35 36 38 40 42 41 39 37 37 35 34 33 32 31 31 30 30 30 30 30 31 31 31 31 29 28 28 27 26 25 23 22 22 21 21 20 20 19 19 20 22 24 26 27 28 29 30 32 32 32 33 33 35 37 40 42 42
23 23 23 24 24 25 26 28 29 29 30 30 30 31 31 32 33 34 35 37 39 40 39 37 36 35 34 33 32 31 31 31 30 30 29 28 28 29 30 30 29 28 27 27 26 25 24 24 23 23 24 24 24 23 22 21 21 21 22 23 25 27 28 29 31 32 32 33 33 33 35 37 40 42
23 23 23 23 23 24 26 28 29 29 29 29 30 30 31 32 32 33 34 36 38 38 37 36 34 33 32 32 31 30 30 30 29 28 27 26 26 28 29 30 29 28 27 25 23 22 22 24 24 25 26 26 25 25 24 23 23 22 22 22 23 25 27 28 30 31 32 32 33 33 34 36 38 41
23 22 22 22 23 24 26 28 29 29 29 29 29 30 31 31 32 32 34 35 36 37 36 35 34 33 31 30 30 30 30 29 29 28 27 26 26 26 28 28 27 26 24 23 22 21 21 22 23 24 25 26 25 25 25 24 24 24 23 23 22 23 24 26 28 30 31 32 32 33 33 34 36 39
23 22 21 22 23 24 26 28 28 28 28 29 29 30 31 31 31 32 33 33 34 35 35 34 33 32 30 29 29 29 30 30 29 28 27 26 25 26 27 26 24 23 22 22 23 23 23 24 24 25 26 26 26 26 27 27 27 25 24 24 23 22 23 24 26 27 29 31 31 32 32 33 35 37
22 21 21 21 23 25 26 27 28 28 28 29 29 30 30 30 30 31 32 32 33 33 33 33 32 31 30 29 29 29 30 30 29 28 27 25 25 25 26 25 23 22 21 21 22 24 25 26 27 27 28 28 28 29 29 29 28 26 26 26 24 22 21 22 23 25 27 28 30 31 32 32 33 35
22 21 20 21 22 25 26 27 27 27 28 29 29 29 29 30 30 30 31 30 31 31 32 32 31 30 29 29 28 29 29 29 29 27 26 24 23 24 25 24 21 19 19 20 21 23 24 25 26 27 27 28 29 30 30 30 30 30 31 31 29 25 21 19 21 23 24 26 28 29 30 31 32 33
22 21 20 20 22 25 26 27 27 27 28 28 28 28 29 29 29 30 29 29 29 30 30 30 30 30 29 28 28 28 28 28 28 27 26 25 23 23 24 23 20 18 18 19 21 22 23 23 24 25 26 27 28 29 29 30 32 34 35 35 34 32 28 23 19 19 21 23 26 27 28 29 30 32
21 20 19 20 22 25 26 27 27 27 27 28 28 28 28 28 29 29 28 27 27 28 29 29 29 29 28 27 27 27 27 27 27 27 27 26 24 23 23 23 21 19 19 19 20 21 21 22 23 24 26 27 28 29 30 31 33 35 36 37 37 36 35 31 25 19 18 19 22 24 27 28 29 30
21 19 19 20 23 25 26 26 26 27 27 27 27 27 27 28 28 29 28 26 26 26 27 28 28 27 27 26 26 26 26 27 27 27 27 26 25 24 23 23 22 20 19 20 19 19 20 21 22 23 25 26 28 29 31 32 33 34 35 35 36 36 37 37 34 27 20 16 17 19 23 26 28 29
20 19 19 20 23 25 26 26 26 27 27 26 26 26 27 27 27 28 27 25 24 25 25 26 26 26 25 24 24 24 25 26 26 27 27 26 25 24 24 23 22 21 20 20 19 19 20 20 21 23 24 25 27 29 30 32 33 34 34 34 35 35 36 37 38 35 27 19 14 13 16 20 24 26
20 19 19 21 23 24 25 26 26 26 26 25 25 26 26 26 27 27 27 25 23 23 24 25 25 25 24 23 22 23 24 24 25 26 26 26 25 25 25 24 23 22 21 21 20 20 20 20 21 22 23 24 26 27 29 31 32 32 33 33 33 34 36 37 37 37 35 31 24 18 12 12 16 20
20 20 20 21 23 24 25 26 27 27 26 25 25 26 26 26 26 27 27 25 23 22 22 23 24 24 23 22 22 21 22 22 23 24 25 25 25 25 25 25 24 24 23 22 22 21 21 21 21 21 22 23 25 27 28 30 30 31 32 33 34 34 35 35 35 36 38 38 36 31 24 15 10 11
21 21 21 22 23 24 26 27 27 27 26 25 25 26 26 26 26 27 27 25 23 21 21 22 22 23 23 22 21 21 21 21 22 23 23 24 24 24 24 25 25 24 24 24 23 22 22 21 21 21 22 22 24 26 27 28 28 29 30 32 33 33 33 34 34 35 35 36 37 37 34 27 18 11
22 21 21 22 23 25 26 27 27 27 26 25 25 26 26 26 26 27 27 25 23 21 20 21 21 22 22 22 22 21 21 20 21 21 22 22 23 23 23 24 24 24 24 24 24 24 24 23 23 23 23 23 24 25 26 27 27 28 29 30 31 32 32 33 33 33 33 34 34 35 36 34 28 20
23 22 22 22 23 25 27 28 27 27 26 26 26 26 26 26 26 27 27 26 24 21 20 20 20 21 21 22 22 21 21 21 20 20 20 21 22 22 23 23 23 23 24 24 24 25 25 25 25 25 25 25 25 25 26 26 26 27 28 29 29 30 31 32 32 33 33 33 32 32 32 33 32 28
24 23 23 23 24 26 27 28 28 27 26 26 26 26 26 26 27 27 27 26 25 23 21 20 20 20 21 21 22 22 21 21 21 21 20 20 21 21 22 22 22 23 23 23 24 24 24 25 25 25 26 26 26 25 25 25 26 26 27 27 28 29 29 30 31 31 31 31 31 30 29 28 29 29
25 24 24 24 25 27 28 28 28 28 27 27 27 27 26 27 27 27 27 27 26 25 22 21 21 20 21 21 22 22 22 22 22 21 21 21 21 21 22 22 23 23 23 23 23 24 24 24 24 25 25 26 26 26 26 26 26 26 26 27 27 28 28 28 29 29 29 29 29 28 28 27 27 26
27 25 25 25 26 27 29 29 29 28 28 28 27 27 27 27 28 28 28 28 28 27 25 23 22 21 21 21 22 22 22 23 23 22 22 22 22 22 22 23 23 24 24 24 24 24 24 24 24 24 25 25 25 26 26 26 26 26 26 26 27 27 27 27 28 28 27 28 27 27 27 26 26 24
28 27 26 27 27 28 29 30 29 29 29 29 28 28 28 28 29 29 29 29 29 28 27 25 24 23 23 22 22 23 23 23 23 23 24 23 23 23 23 23 23 24 25 25 25 25 25 25 25 25 25 25 25 25 26 26 26 26 26 26 26 26 26 27 27 27 27 27 26 26 25 24 24 23
29 28 28 28 29 30 30 30 30 30 30 30 29 28 28 29 29 30 29 29 29 30 29 28 27 25 25 24 24 24 24 24 24 24 25 25 25 25 25 25 25 25 25 26 26 27 27 27 27 27 27 27 26 26 26 26 26 26 26 26 26 26 26 26 26 26 26 26 26 25 25 24 23 22
29 30 30 30 30 31 31 31 31 31 31 31 30 30 29 29 30 30 31 30 30 30 31 30 29 28 28 27 26 26 26 26 26 26 26 26 27 27 27 27 27 27 27 27 27 28 28 29 29 29 29 29 28 28 28 27 27 27 27 27 27 26 26 26 26 25 25 25 25 25 24 24 23 22
31 31 32 32 32 32 33 33 32 32 32 32 31 31 30 31 31 31 31 31 32 32 32 32 32 31 31 30 29 29 28 28 28 28 28 28 28 28 29 29 29 29 29 29 29 29 29 30 30 31 31 31 31 30 30 29 29 28 27 27 27 27 27 26 26 25 25 25 25 24 24 24 23 22
32 33 33 33 34 34 34 34 34 34 33 33 32 32 32 32 32 32 32 32 33 33 33 33 33 33 33 33 33 32 31 31 30 30 31 31 31 31 31 31 31 31 32 32 31 31 31 31 31 32 32 32 32 32 32 31 31 30 29 28 28 27 27 27 26 26 25 25 25 24 24 24 23 23
34 35 35 35 35 36 36 36 36 35 35 34 34 33 33 33 33 33 33 33 34 34 35 35 35 35 36 36 35 35 34 34 33 33 33 33 33 33 33 33 34 34 34 34 34 34 33 33 33 33 33 33 33 33 33 33 33 32 32 31 30 29 29 28 28 27 26 25 25 25 25 25 24 23
35 36 37 37 37 38 38 39 38 38 37 36 35 34 34 34 34 34 34 35 35 36 36 37 37 37 37 38 37 37 37 36 36 36 36 36 36 36 36 36 36 36 36 36 36 36 37 36 36 35 35 35 35 35 34 34 34 34 34 33 32 31 31 31 30 29 28 27 26 26 26 26 25 25
Wind_Direction
314 314 316 319 322 323 324 324 324 324 326 327 328 328 328 328 328 329 330 330 330 330 330 329 329 328 327 326 325 323 322 320 319 317 316 314 313 311 309 307 305 302 300 297 296 292 287 282 280 278 270 259 253 251 249 248 246 244 244 243 239 237 238 238 238 239 239 240 241 242 242 242 242 242
314 314 316 319 321 323 323 323 323 324 325 326 326 327 327 328 328 329 329 330 329 329 329 328 328 327 326 324 323 322 321 319 317 316 314 312 311 309 307 306 304 301 298 296 293 290 287 283 277 275 274 267 258 252 249 251 250 246 244 244 241 238 238 238 238 239 240 241 241 242 242 242 242 242
314 315 317 319 321 322 322 322 323 323 324 325 326 326 327 328 328 328 329 330 330 330 329 328 328 327 326 325 324 322 321 320 319 317 315 312 310 308 305 303 301 299 297 294 291 288 285 282 278 273 270 268 265 256 248 247 250 249 247 245 243 242 241 240 240 242 243 242 242 242 242 241 242 243
318 320 321 322 323 323 322 322 322 323 325 326 326 327 328 328 329 330 330 330 330 330 329 329 329 328 327 326 325 324 323 323 321 320 318 315 312 309 306 302 299 297 295 293 290 287 284 281 278 274 269 265 264 262 255 248 242 242 244 244 242 240 241 246 251 252 250 245 242 241 241 241 241 242
324 325 325 325 324 323 322 322 323 324 326 327 327 327 328 329 331 332 332 331 331 331 330 330 329 329 328 328 327 326 325 323 322 319 317 315 312 309 306 303 299 296 293 291 289 286 283 280 277 274 271 266 262 261 261 258 250 240 237 239 241 238 235 240 248 253 253 250 248 245 242 240 240 241
327 328 327 326 324 323 322 322 324 326 328 328 327 328 329 331 332 332 332 332 333 333 333 332 331 330 330 329 328 326 324 322 320 317 315 312 310 307 304 302 299 296 292 289 287 284 282 280 277 274 271 268 264 260 259 260 261 256 243 235 237 238 235 235 239 244 247 250 252 253 248 243 241 240
328 328 326 325 323 322 322 323 325 328 328 327 327 328 330 331 332 332 332 333 333 334 334 334 333 332 330 329 327 325 324 321 318 316 313 311 309 307 304 301 297 295 292 289 286 284 281 279 277 275 272 269 266 262 259 257 259 261 257 246 239 237 237 237 238 242 245 247 251 254 254 249 244 244
327 326 324 323 322 322 322 324 327 328 327 326 327 328 330 331 332 332 332 333 334 335 335 335 334 333 331 330 328 325 323 320 317 316 314 313 312 310 308 304 300 295 291 288 285 283 281 280 278 276 274 271 268 264 261 258 257 257 257 255 250 243 237 234 235 240 245 246 247 250 253 251 247 248
326 324 322 321 322 322 323 325 327 326 326 326 327 329 330 331 331 332 333 334 336 337 337 336 335 334 332 331 328 325 322 320 318 317 316 316 317 317 315 312 308 303 298 292 287 282 280 279 278 277 275 274 272 268 264 260 258 256 255 254 254 251 243 234 232 236 240 242 243 244 248 249 246 246
324 322 320 320 321 322 323 325 325 325 325 326 328 329 329 330 331 332 333 335 337 338 337 337 336 335 333 331 329 326 324 322 320 320 321 321 321 320 318 316 314 310 305 300 294 288 283 279 277 277 277 275 274 272 269 264 260 257 256 254 254 254 251 243 235 234 236 238 239 240 242 246 245 243
321 319 318 320 321 322 323 324 324 324 325 327 327 328 328 329 331 332 333 335 337 338 338 337 336 335 334 333 331 329 327 326 325 324 323 321 320 319 318 317 316 313 310 306 300 294 288 283 279 277 277 277 276 275 273 270 265 260 257 255 255 255 254 251 245 238 234 235 236 236 237 240 242 241
318 317 318 319 320 321 322 323 323 324 325 326 327 328 328 329 330 331 333 335 337 338 337 337 337 337 337 336 334 332 330 327 324 322 321 320 320 320 320 319 319 318 317 315 310 304 297 290 283 279 277 276 276 276 275 273 270 266 261 258 256 256 255 253 252 246 237 233 234 234 234 234 235 237
316 315 316 318 320 321 322 323 323 324 325 326 327 328 328 328 329 331 333 336 337 337 337 338 339 339 339 339 337 334 330 327 325 324 325 325 324 324 323 324 323 322 321 319 317 314 310 304 296 288 281 276 274 274 275 274 273 270 266 263 260 259 258 254 253 251 243 235 234 234 233 230 229 233
314 314 316 318 320 321 322 323 323 323 325 327 328 328 328 328 329 331 334 336 337 337 338 339 340 342 343 342 340 337 335 333 331 330 328 327 327 327 327 325 323 321 320 318 315 312 310 308 306 301 294 286 278 274 272 272 273 272 269 267 264 263 261 258 254 253 250 242 238 236 235 231 227 228
311 312 315 319 321 321 322 322 322 323 325 327 329 328 328 328 330 332 335 337 337 338 339 340 342 345 346 345 343 341 339 337 335 332 330 328 328 326 323 321 320 320 318 314 311 308 305 303 303 303 301 298 291 284 278 273 272 271 270 268 267 266 265 262 257 255 254 250 245 241 238 236 231 228
308 310 315 320 321 321 321 321 321 324 326 328 329 329 328 329 331 333 335 337 337 339 341 342 345 348 347 346 346 344 341 340 338 336 334 332 329 326 325 325 325 325 325 324 321 318 313 309 306 304 302 300 297 292 287 281 275 272 270 268 267 267 267 266 262 258 256 253 251 247 242 239 236 234
305 309 316 320 321 319 319 320 322 325 327 328 328 328 329 330 332 334 336 337 338 340 342 345 348 349 348 347 346 345 344 343 341 340 338 335 334 336 338 339 338 339 340 339 335 331 327 321 315 311 306 301 298 294 291 287 282 277 273 270 267 266 266 266 265 262 259 256 254 251 248 243 240 238
304 309 316 320 319 317 317 320 323 325 327 328 328 328 329 331 332 334 336 337 339 342 344 347 349 349 348 348 347 347 346 345 345 344 341 341 344 348 349 349 349 349 347 345 344 342 339 333 327 321 316 310 305 301 295 290 286 282 278 273 269 266 265 265 264 263 261 259 256 254 251 248 244 241
302 308 315 319 318 316 317 320 323 325 327 328 328 329 330 331 333 334 336 338 340 343 345 348 349 349 348 348 348 348 348 348 348 348 348 351 354 354 353 353 353 350 348 347 349 349 347 343 339 335 329 322 315 309 303 298 292 287 283 278 274 269 266 265 264 262 260 259 257 255 253 250 247 244
300 306 314 318 316 315 317 320 323 325 326 327 328 329 330 332 332 334 336 338 342 345 347 348 349 349 348 348 349 349 351 352 353 353 355 357 356 354 354 353 351 350 350 351 350 349 350 350 348 346 342 337 331 323 315 307 299 293 288 283 279 275 270 266 264 262 261 258 256 255 253 251 248 245
298 305 313 316 315 315 318 321 324 325 326 327 327 329 330 331 332 334 336 339 343 346 348 348 349 349 349 349 349 350 353 354 355 356 357 355 352 353 353 352 350 351 354 355 353 351 353 354 354 354 352 348 342 335 327 319 312 303 296 289 285 281 276 271 266 263 261 259 257 255 252 250 248 246
297 304 312 315 315 316 318 321 324 324 325 326 327 329 330 329 331 334 336 340 345 347 348 348 348 349 349 349 349 350 353 354 355 356 356 353 352 354 354 352 353 355 356 356 357 358 1 2 3 4 3 359 352 345 337 330 322 314 305 297 291 285 281 276 271 266 263 259 257 255 253 250 248 246
296 304 311 314 314 316 319 322 323 323 324 326 328 329 329 329 332 334 336 340 346 347 347 347 348 348 349 349 349 350 352 354 355 355 355 353 352 354 356 356 357 357 356 359 4 9 14 16 17 17 15 10 4 359 355 350 342 332 322 310 300 291 285 281 276 271 267 262 258 255 253 251 249 247
297 304 311 313 314 316 319 321 321 321 323 326 328 328 328 329 332 333 335 341 346 347 346 347 348 348 348 348 350 351 352 354 355 355 354 352 353 355 357 359 1 1 3 8 13 16 18 19 18 17 15 11 7 5 5 4 358 350 341 329 316 303 292 285 280 276 271 266 261 256 253 250 249 248
297 304 310 312 313 316 318 319 319 321 324 326 326 326 327 329 332 333 335 341 346 346 345 346 347 347 347 348 351 352 354 354 354 354 353 353 354 357 358 1 4 6 9 13 16 16 16 14 11 11 11 8 7 8 8 7 3 359 356 351 341 325 306 291 283 278 274 270 265 260 255 250 247 246
298 304 309 311 312 315 316 317 318 321 324 324 324 325 326 329 331 332 334 340 344 344 344 345 346 346 346 348 352 354 354 354 354 353 353 354 356 358 360 2 5 7 8 11 13 13 12 11 9 10 9 9 10 11 11 10 9 9 8 5 1 351 334 312 292 280 275 271 268 263 258 253 248 245
297 302 306 309 311 313 315 315 317 321 323 323 323 324 326 329 331 330 332 338 342 343 343 344 345 345 346 348 352 354 355 355 355 354 354 356 358 360 1 2 3 5 7 9 10 10 10 10 10 10 10 10 11 11 11 12 14 14 13 11 9 8 2 347 322 296 280 272 267 264 260 255 249 245
295 300 304 306 310 312 313 314 317 320 321 321 322 323 325 328 329 329 330 336 340 341 342 343 343 344 346 347 351 354 355 356 356 356 357 358 358 359 1 1 1 3 6 9 10 10 10 9 10 10 10 10 10 9 10 12 14 15 14 12 12 13 12 8 357 334 305 284 272 264 259 255 250 245
293 297 301 305 309 311 312 314 317 319 319 320 321 322 324 326 327 327 328 333 338 340 341 342 342 343 344 346 349 352 354 355 356 358 360 360 358 358 359 359 360 2 5 7 8 8 9 8 7 8 9 9 8 8 9 11 13 14 13 12 12 13 14 14 11 3 345 318 293 274 262 256 251 245
292 295 299 304 308 309 311 314 316 316 317 318 320 321 322 324 325 325 326 330 335 338 340 340 341 341 342 343 346 348 351 354 356 359 1 1 359 358 357 357 357 359 1 2 3 4 4 4 4 4 5 5 6 7 7 10 11 11 10 10 12 13 14 14 14 12 8 355 330 299 276 262 254 248
291 294 297 302 306 308 310 312 313 314 314 316 318 318 319 321 323 323 324 327 332 335 338 339 339 339 339 339 341 343 347 351 354 357 360 1 0 360 358 357 356 356 356 356 357 358 359 359 360 360 360 1 2 4 6 9 10 9 8 9 10 12 14 15 14 14 15 15 11 359 334 292 266 253
290 292 296 301 305 307 309 311 311 311 312 314 315 316 316 318 321 322 322 324 328 332 335 336 335 335 335 335 335 338 343 346 349 352 355 357 359 359 359 359 358 357 355 354 354 355 355 356 357 357 357 358 1 3 6 10 11 9 8 9 10 12 14 14 14 15 18 20 20 18 14 360 321 276
289 291 294 300 304 306 308 309 308 309 310 312 313 313 314 316 318 319 319 320 324 328 331 331 332 331 332 332 332 333 336 339 342 346 348 350 353 354 356 357 357 357 356 355 354 354 354 355 355 356 357 359 2 5 7 10 10 9 9 10 10 11 12 13 14 16 19 20 21 22 22 19 11 353
287 289 293 298 303 305 306 306 306 307 308 310 311 311 312 312 314 316 317 317 320 323 325 326 327 327 328 328 328 328 329 331 335 338 340 342 344 346 348 350 352 353 354 354 354 354 354 355 355 355 357 360 2 5 6 7 7 7 8 10 10 11 12 12 13 15 18 19 20 22 24 24 24 20
285 287 291 296 301 303 304 304 304 305 307 308 309 309 309 310 311 313 314 315 316 317 318 319 321 323 324 324 324 324 325 325 327 330 332 334 336 338 340 342 343 345 347 348 350 350 351 352 352 353 355 357 359 1 2 2 3 4 6 7 8 9 11 11 11 14 16 17 18 20 21 24 27 28
283 284 288 294 298 301 302 302 303 304 304 305 306 307 307 308 308 309 311 312 311 311 312 314 316 317 319 319 320 321 321 322 323 324 326 327 329 331 332 334 335 337 339 340 342 343 344 345 346 347 349 350 352 354 355 357 358 0 2 3 4 6 8 9 10 13 14 14 15 17 17 19 25 30
281 282 286 292 296 298 300 300 301 302 302 303 304 305 305 305 306 306 308 308 308 307 307 308 310 311 312 313 314 316 317 318 320 321 322 323 325 326 327 329 329 331 332 334 335 336 337 338 339 341 342 343 345 346 348 351 353 355 357 358 360 2 3 5 7 9 10 11 12 14 15 16 19 24
279 280 284 289 293 295 297 298 299 300 301 301 302 303 303 303 303 304 305 305 305 304 304 304 304 304 305 307 309 311 313 314 316 317 318 320 321 323 324 326 327 328 328 329 330 330 331 332 333 334 335 337 338 340 342 344 346 348 350 352 354 356 358 360 2 3 4 6 8 10 12 13 14 15
277 278 282 287 290 292 294 296 297 298 299 299 300 301 301 302 301 301 302 302 302 302 301 300 300 299 299 301 303 304 307 309 311 313 314 315 317 319 320 322 324 325 326 327 327 328 329 329 329 330 330 331 332 334 335 337 339 340 343 344 346 349 350 353 355 356 357 359 2 3 6 7 9 11
275 277 281 285 287 290 292 294 295 296 297 298 299 299 299 299 299 299 300 300 300 299 299 298 297 296 295 296 297 298 300 302 304 307 309 311 312 314 315 317 318 320 322 323 325 326 327 328 328 328 328 328 329 329 330 331 332 334 336 338 339 341 342 344 346 348 350 352 353 355 357 360 1 4
275 277 280 283 285 287 290 292 293 295 295 296 297 297 297 297 297 298 298 298 298 297 297 296 295 294 293 293 293 293 295 297 299 301 304 306 308 309 311 312 313 315 316 318 320 322 323 325 325 326 327 327 327 327 328 328 328 329 330 332 333 334 335 337 338 339 341 342 344 346 348 350 352 355
275 277 279 281 283 286 288 290 291 293 293 294 295 295 295 295 296 296 297 297 297 296 295 294 294 293 292 291 291 291 292 293 295 297 299 301 303 305 307 308 309 311 312 313 315 317 319 320 321 323 324 325 325 325 326 326 326 326 326 327 328 329 329 331 332 333 334 334 334 336 338 340 342 344
276 278 280 282 283 285 286 288 289 291 291 292 293 293 293 293 294 295 295 295 295 295 294 293 292 292 291 291 291 291 292 292 293 294 296 298 299 301 303 305 306 308 309 310 311 313 314 316 317 318 319 320 321 322 322 323 323 323 323 322 323 324 325 325 326 327 328 329 328 327 328 329 330 332
276 279 282 283 284 285 286 287 288 289 289 290 291 292 292 292 292 293 294 294 294 294 293 292 292 291 291 291 291 292 292 292 292 293 294 295 296 298 300 301 303 304 306 307 308 309 310 311 312 313 314 315 316 317 318 319 320 320 320 320 320 320 321 321 321 321 322 323 324 323 321 320 320 321
279 282 285 286 286 286 287 287 288 287 288 289 289 290 290 290 291 292 292 293 293 293 292 292 292 291 290 290 290 291 291 292 292 292 292 293 294 295 296 298 299 301 302 304 305 307 308 309 309 310 310 311 312 313 313 314 316 316 316 317 317 318 318 318 317 316 317 317 318 319 319 317 314 312